Погода в Юливиеска

Финляндия     64°03′54″N   24°32′57″E
темп.,
°C
ветер,
м/с
пор.,
м/с
влажн.,
%
обл.,
%
осадки,
мм/ч
давл.,
гПа
погр.,
м
25 февраля, чт
чт2523:00+1з4898100 0.0 1004413
02:00+1зюз31197100 0.0 1005373
05:00−1юз399447 0.0 1004254
08:00−1юз3109363 0.0 1004220
11:00+2юз4109641 0.0 1003337
14:00+2юз489958 0.0 1003344
17:00+1юз3997100 0.0 1002341
20:000юз399680 0.0 1001275
26 февраля, пт
пт2623:00−1юз3796100 0.0 999210
02:00−1зюз3996100 0.0 999254
05:00−1зюз31195100 0.0 997347
08:00−1зюз4119290 0.0 997293
11:00+1з399460 0.0 998378
14:00+1зсз369351 0.0 1000432
17:00−1ссз4119076 0.0 1003417
20:00−1сз3138939 0.0 1007486
27 февраля, сб
сб2723:00+1ссз6149385 0.1 1010848
02:000ссз5118892 0.1 1014645
05:00−4ссз4118933 0.0 1017402
08:00−6ссз389317 0.0 1020253
11:00−3ссз25840 0.0 1022232
14:00−1зсз24820 0.0 1023262
17:00−3зюз23880 0.0 102269
20:00−4юз388950 0.0 1021258
28 февраля, вс
вс2823:00−2юз3996100 0.6 1019305
02:00+1зюз41197100 1.6 1018370
05:00−1зюз4119457 0.0 1016298
08:00−1з399361 0.0 1017263
11:00+2з38890 0.0 1018340
14:00+3зюз389317 0.0 1019336
17:00+2зюз39937 0.0 1019262
20:00+2з514894 0.0 1019444
1 марта, пн
пн123:00+3зюз616850 0.0 1018499
02:00+3зюз7168450 0.0 1016790
05:00+3з81782100 0.0 1014910
08:00+4зюз71682100 0.0 1012973
11:00+4з71685100 0.0 1011951
14:00+4зсз6147784 0.0 10111047
17:00+3з614780 0.0 1012772
20:00+2з615772 0.0 1013703